Location: Newark
(50.8547°N, 2.7256°E)
Time: 20:43:03
(UTC+00:00)

Envisat - Pass Details

Date: 01 February 2020
Orbit: 764 x 766 km, 98.1° (Epoch: 23 February)

Event Time Altitude Azimuth Distance (km) Brightness Sun altitude
Rises 18:09:02 0° 186° (S) 3,221 6.4 -14.2°
Reaches altitude 10° 18:11:28 10° 194° (SSW) 2,300 5.8 -14.5°
Maximum altitude 18:16:13 39° 263° (W) 1,136 4.5 -15.3°
Drops below altitude 10° 18:20:59 10° 333° (NNW) 2,315 5.7 -16.0°
Sets 18:23:27 0° 341° (NNW) 3,246 6.4 -16.4°
